Location: Usti nad Labem
(50.6670°N, 14.0330°E)
Time: 21:51:52
(UTC+01:00)

Envisat - Pass Details

Date: 03 December 2020
Orbit: 764 x 766 km, 98.1° (Epoch: 15 January)

Event Time Altitude Azimuth Distance (km) Brightness Sun altitude
Rises 05:02:45 0° 23° (NNE) 3,246 6.5 -24.9°
Reaches altitude 10° 05:05:28 10° 37° (NE) 2,314 5.8 -24.5°
Maximum altitude 05:09:39 25° 92° (E) 1,509 5.3 -23.8°
Drops below altitude 10° 05:13:48 10° 147° (SSE) 2,298 6.0 -23.2°
Sets 05:16:28 0° 160° (SSE) 3,219 6.6 -22.8°
